MST,Max TemperatureF,Mean TemperatureF,Min TemperatureF,Max Dew PointF,MeanDew PointF,Min DewpointF,Max Humidity, Mean Humidity, Min Humidity, Max Sea Level PressureIn, Mean Sea Level PressureIn, Min Sea Level PressureIn, Max VisibilityMiles, Mean VisibilityMiles, Min VisibilityMiles, Max Wind SpeedMPH, Mean Wind SpeedMPH, Max Gust SpeedMPH,PrecipitationIn, CloudCover, Events, WindDirDegrees
2014-2-1,21,12,3,18,8,1,96,86,76,30.27,29.96,29.72,10,4,0,20,7,29,0.06,8,Fog-Snow,36
2014-2-2,26,11,-4,8,0,-9,87,62,37,30.26,30.15,29.95,10,10,4,25,7,30,0.00,0,,242
2014-2-3,28,17,5,16,8,-1,77,56,35,30.10,29.98,29.84,10,8,2,13,4,26,0.01,5,Snow,21
2014-2-4,13,-2,-17,10,-1,-17,92,82,71,30.58,30.03,29.82,10,3,0,23,10,40,0.16,8,Fog-Snow,56
2014-2-5,-4,-13,-23,-11,-16,-28,92,80,68,30.68,30.34,30.07,10,5,0,10,5,15,T,6,Fog-Snow,192
2014-2-6,-1,-11,-21,-9,-16,-26,91,78,65,30.53,30.26,29.85,10,7,0,12,2,14,0.01,5,Fog-Snow,233
2014-2-7,37,16,-5,24,10,-8,87,66,44,30.11,29.97,29.86,10,10,10,22,7,28,0.00,0,,258
2014-2-8,42,27,12,25,17,10,92,71,49,30.13,29.92,29.80,10,7,1,33,12,43,0.08,4,Snow,351
2014-2-9,15,9,2,13,8,0,100,92,83,30.25,29.97,29.83,6,2,0,23,8,31,0.08,7,Fog-Snow,169
2014-2-10,37,19,0,27,16,-2,96,78,59,30.23,30.17,29.95,10,9,3,15,7,18,0.00,3,,271
2014-2-11,37,24,11,21,17,9,88,65,41,30.19,30.05,29.94,10,8,2,38,17,48,0.01,2,Snow,283
2014-2-12,42,30,18,27,21,15,88,67,46,30.19,29.98,29.78,10,9,2,41,17,53,T,2,Rain-Snow,256
2014-2-13,47,41,35,29,25,23,64,53,42,29.90,29.77,29.65,10,10,10,43,22,58,0.00,0,,292
2014-2-14,44,36,28,31,21,11,78,53,28,30.03,29.91,29.72,10,10,10,32,13,44,0.00,5,,294
2014-2-15,49,39,28,31,28,25,100,75,50,30.10,29.97,29.61,10,5,0,44,16,54,0.20,7,Fog-Snow,348
2014-2-16,56,42,27,31,24,15,85,58,30,29.99,29.80,29.60,10,9,0,48,19,59,0.01,1,Snow-Thunderstorm,255
2014-2-17,50,39,27,12,9,0,53,36,19,30.08,29.91,29.71,10,10,10,51,23,61,0.00,0,,268
2014-2-18,47,39,31,25,15,10,72,49,25,29.97,29.84,29.61,10,10,10,40,19,58,0.00,0,,272
2014-2-19,54,39,23,24,19,14,88,55,22,29.86,29.65,29.43,10,10,5,32,15,41,T,3,Snow,293
2014-2-20,30,27,23,17,5,-4,84,54,24,29.97,29.84,29.72,10,10,10,43,26,59,0.00,1,,300
2014-2-21,40,31,21,20,13,8,92,60,27,29.94,29.86,29.77,10,10,10,45,23,61,0.00,3,,298
2014-2-22,38,28,17,27,20,13,92,71,49,30.08,29.88,29.78,10,5,0,29,12,38,0.16,7,Fog-Snow,314
2014-2-23,27,20,13,22,16,10,100,91,81,30.17,30.02,29.90,10,3,0,16,7,20,0.11,8,Fog-Snow,120
2014-2-24,51,31,10,26,14,4,100,68,35,30.31,30.04,29.78,10,7,1,32,12,41,T,5,Snow,5
2014-2-25,18,5,-9,11,2,-12,100,87,73,30.57,30.22,29.95,10,4,0,30,12,36,0.24,6,Fog-Rain-Snow,334
2014-2-26,41,15,-11,20,7,-12,91,61,30,30.39,30.14,29.95,10,8,1,21,9,25,T,2,Snow,257
2014-2-27,50,35,19,33,25,14,85,62,39,29.93,29.68,29.50,10,10,10,28,9,32,T,4,,256
2014-2-28,46,34,21,32,25,19,100,71,41,29.92,29.73,29.49,10,6,0,31,12,41,T,5,Fog-Rain,111